sat.trackr.live / text

‹ back to catalog

STARLINK-31241

NORAD 59045 · 2024-038Y

PAYLOAD ACTIVE UNKNOWN

§ Identity

Operator
Country
US
Launch date
2024-02-25
Launch site
AFETR
Launch vehicle
Mass (kg)
RCS (m²)

Purposes: comms

External: N2YO · Heavens-Above · Gunter

§ Orbital elements

Epoch: 2026-09-19T14:43:20.271648Z

Period
94.27 min
Inclination
43.0045°
Eccentricity
0.0001471
Mean motion
15.27577425 rev/d
Perigee alt
482.0 km
Apogee alt
484.1 km
Semi-major
6,861.2 km
B*
1.7021e-5
RAAN
8.6205°
Arg perigee
290.4946°
Mean anomaly
69.5748°
Rev number
14,451

§ Raw data

STARLINK-312411 59045U 24038Y   26262.61342907  .00000206  00000+0  17021-4 0  99922 59045  43.0045   8.6205 0001471 290.4946  69.5748 15.27577425144518

JSON: /api/v1/satellites/59045 · /tle

For live sub-satellite position, see the globe view (requires WebGL).

§ Visibility from observer

Set your observer location to see the next 7 days of passes ≥ 10°. The values pass through the URL so the page stays shareable.

No JS? Fill the form by hand. The geolocation button needs JavaScript.